This demonstration page uses our WeatherBlox Daily Observations layout. Learn more.

Left ArrowRight Arrow

Hourly Observations for April 22, 2021

Temp ( °F °C ) Dew Point ( °F °C ) Humidity (%) Winds ( mph kmh ) Pressure ( in mb ) Visibility ( mi km ) Precip ( " mm )
12:54 am 00:54 Clear 31 -0.6 20 -6.7 64 64 SSE 3 6 30.23 1024 10 16.0934 0 0
1:54 am 01:54 Clear 30 -1.1 21 -6.1 69 69 SSE 5 7 30.22 1023 10 16.0934 0 0
2:54 am 02:54 Clear 29 -1.7 20 -6.7 69 69 S 5 7 30.2 1023 10 16.0934 0 0
3:54 am 03:54 Clear 31 -0.6 20 -6.7 64 64 SSE 3 6 30.19 1022 10 16.0934 0 0
4:54 am 04:54 Clear 25 -3.9 19 -7.2 78 78 S 6 9 30.19 1023 10 16.0934 0 0
5:54 am 05:54 Clear 26 -3.3 19 -7.2 75 75 S 5 7 30.19 1023 10 16.0934 0 0
6:54 am 06:54 Sunny 25 -3.9 19 -7.2 78 78 S 5 7 30.2 1023 10 16.0934 0 0
7:54 am 07:54 Sunny 30 -1.1 23 -5 75 75 S 3 6 30.21 1023 10 16.0934 0 0
8:54 am 08:54 Sunny 39 3.9 26 -3.3 60 60 SSW 5 7 30.19 1023 10 16.0934 0 0
9:54 am 09:54 Partly Cloudy 48 8.9 26 -3.3 42 42 SSW 9 15 30.19 1022 10 16.0934 0 0
10:54 am 10:54 Cloudy 51 10.6 25 -3.9 36 36 SSW 14 22 30.17 1022 10 16.0934 0 0
11:54 am 11:54 Cloudy 52 11.1 22 -5.6 31 31 SSW 16 26 30.15 1021 10 16.0934 0 0
12:54 pm 12:54 Partly Cloudy 55 12.8 22 -5.6 28 28 S 22 35 30.1 1019 10 16.0934 0 0
1:54 pm 13:54 Mostly Cloudy 58 14.4 23 -5 26 26 S 20 31 30.07 1018 10 16.0934 0 0
2:54 pm 14:54 Partly Cloudy 58 14.4 25 -3.9 28 28 S 18 30 30.04 1017 10 16.0934 0 0
3:54 pm 15:54 Mostly Cloudy 57 13.9 26 -3.3 30 30 SSW 14 22 30 1016 10 16.0934 0 0
4:54 pm 16:54 Cloudy 56 13.3 26 -3.3 32 32 S 18 30 29.98 1015 10 16.0934 0 0
5:54 pm 17:54 Cloudy 56 13.3 27 -2.8 33 33 S 21 33 29.95 1014 10 16.0934 0 0
6:54 pm 18:54 Cloudy 55 12.8 28 -2.2 35 35 SSE 14 22 29.95 1014 10 16.0934 0 0
7:54 pm 19:54 Cloudy 53 11.7 30 -1.1 41 41 S 14 22 29.95 1014 10 16.0934 0 0
8:54 pm 20:54 Cloudy 52 11.1 29 -1.7 41 41 S 13 20 29.95 1014 10 16.0934 0 0
9:54 pm 21:54 Mostly Cloudy 50 10 28 -2.2 43 43 SSE 16 26 29.95 1014 10 16.0934 0 0
10:54 pm 22:54 Partly Cloudy 48 8.9 29 -1.7 48 48 SSE 15 24 29.95 1014 10 16.0934 0 0
11:54 pm 23:54 Cloudy 49 9.4 32 0 52 52 SSE 18 30 29.94 1014 10 16.0934 0 0

Powered by AerisWeather